TimeCDT,TemperatureF,Dew PointF,Humidity,Sea Level PressureIn,VisibilityMPH,Wind Direction,Wind SpeedMPH,Gust SpeedMPH,PrecipitationIn,Events,Conditions,WindDirDegrees,DateUTC
12:15 AM,39.2,37.4,93,29.73,10.0,Calm,Calm,-,N/A,,Overcast,0,2012-10-20 05:15:00
12:35 AM,39.2,37.4,93,29.73,10.0,Calm,Calm,-,N/A,,Overcast,0,2012-10-20 05:35:00
12:53 AM,39.2,37.4,93,29.72,10.0,Calm,Calm,-,N/A,,Overcast,0,2012-10-20 05:53:00
1:15 AM,39.2,37.4,93,29.72,10.0,Calm,Calm,-,N/A,,Overcast,0,2012-10-20 06:15:00
1:53 AM,39.2,37.4,93,29.72,10.0,Calm,Calm,-,N/A,,Overcast,0,2012-10-20 06:53:00
2:15 AM,39.2,37.4,93,29.72,10.0,Calm,Calm,-,N/A,,Overcast,0,2012-10-20 07:15:00
2:35 AM,39.2,37.4,93,29.72,10.0,Calm,Calm,-,N/A,,Overcast,0,2012-10-20 07:35:00
2:53 AM,39.2,37.4,93,29.72,10.0,Calm,Calm,-,N/A,,Overcast,0,2012-10-20 07:53:00
3:15 AM,39.2,37.4,93,29.72,10.0,Calm,Calm,-,N/A,,Overcast,0,2012-10-20 08:15:00
3:35 AM,39.2,37.4,93,29.73,10.0,WSW,3.5,-,N/A,,Overcast,240,2012-10-20 08:35:00
3:53 AM,39.2,37.4,93,29.73,10.0,Calm,Calm,-,N/A,,Overcast,0,2012-10-20 08:53:00
4:15 AM,39.2,37.4,93,29.73,10.0,Calm,Calm,-,N/A,,Overcast,0,2012-10-20 09:15:00
4:35 AM,39.2,37.4,93,29.72,10.0,Calm,Calm,-,N/A,,Overcast,0,2012-10-20 09:35:00
4:53 AM,39.2,37.4,93,29.73,10.0,Calm,Calm,-,N/A,,Overcast,0,2012-10-20 09:53:00
5:15 AM,39.2,37.4,93,29.73,10.0,Calm,Calm,-,N/A,,Overcast,0,2012-10-20 10:15:00
5:35 AM,39.2,37.4,93,29.72,10.0,Calm,Calm,-,N/A,,Overcast,0,2012-10-20 10:35:00
5:53 AM,39.2,37.4,93,29.73,10.0,Calm,Calm,-,N/A,,Overcast,0,2012-10-20 10:53:00
6:15 AM,39.2,37.4,93,29.72,10.0,Calm,Calm,-,N/A,,Overcast,0,2012-10-20 11:15:00
6:35 AM,39.2,37.4,93,29.73,10.0,South,3.5,-,N/A,,Overcast,170,2012-10-20 11:35:00
6:53 AM,39.2,37.4,93,29.73,10.0,SSE,3.5,-,N/A,,Overcast,160,2012-10-20 11:53:00
7:15 AM,39.2,37.4,93,29.72,10.0,SSE,3.5,-,N/A,,Overcast,150,2012-10-20 12:15:00
7:35 AM,39.2,37.4,93,29.73,7.0,SSE,4.6,-,N/A,,Overcast,160,2012-10-20 12:35:00
7:53 AM,39.2,39.2,100,29.73,4.0,SSE,4.6,-,N/A,,Overcast,160,2012-10-20 12:53:00
8:15 AM,39.2,39.2,100,29.74,0.5,SSE,4.6,-,N/A,Fog,Fog,160,2012-10-20 13:15:00
8:35 AM,39.2,39.2,100,29.75,0.2,South,4.6,-,N/A,Fog,Fog,180,2012-10-20 13:35:00
8:53 AM,39.2,39.2,100,29.75,0.2,South,4.6,-,N/A,Fog,Fog,180,2012-10-20 13:53:00
9:15 AM,39.2,39.2,100,29.75,0.5,South,3.5,-,N/A,Rain,Light Rain,190,2012-10-20 14:15:00
9:35 AM,41.0,39.2,93,29.74,1.8,SSW,3.5,-,N/A,,Overcast,200,2012-10-20 14:35:00
9:53 AM,41.0,39.2,93,29.74,5.0,South,6.9,-,N/A,,Overcast,180,2012-10-20 14:53:00
10:15 AM,41.0,39.2,93,29.74,10.0,South,8.1,-,N/A,,Overcast,180,2012-10-20 15:15:00
10:35 AM,42.8,41.0,93,29.74,7.0,South,6.9,-,N/A,,Overcast,180,2012-10-20 15:35:00
10:53 AM,42.8,41.0,93,29.74,10.0,South,8.1,-,N/A,,Overcast,180,2012-10-20 15:53:00
11:15 AM,42.8,41.0,93,29.74,10.0,South,6.9,-,N/A,,Overcast,170,2012-10-20 16:15:00
11:35 AM,42.8,39.2,87,29.74,10.0,South,8.1,-,N/A,,Overcast,170,2012-10-20 16:35:00
11:53 AM,44.6,39.2,81,29.74,10.0,South,8.1,-,N/A,,Overcast,180,2012-10-20 16:53:00
12:14 PM,44.6,39.2,81,29.73,10.0,South,8.1,-,N/A,,Overcast,170,2012-10-20 17:14:00
12:35 PM,44.6,41.0,87,29.72,10.0,South,9.2,-,N/A,,Overcast,190,2012-10-20 17:35:00
12:53 PM,46.4,41.0,81,29.72,10.0,South,8.1,-,N/A,,Overcast,170,2012-10-20 17:53:00
1:14 PM,46.4,41.0,81,29.72,10.0,South,8.1,-,N/A,,Overcast,190,2012-10-20 18:14:00
1:35 PM,46.4,39.2,76,29.72,10.0,SSW,10.4,-,N/A,,Overcast,200,2012-10-20 18:35:00
1:53 PM,46.4,39.2,76,29.72,10.0,South,10.4,-,N/A,,Overcast,170,2012-10-20 18:53:00
2:15 PM,46.4,39.2,76,29.71,10.0,South,10.4,-,N/A,,Overcast,180,2012-10-20 19:15:00
2:35 PM,46.4,39.2,76,29.70,10.0,South,11.5,16.1,N/A,,Overcast,170,2012-10-20 19:35:00
2:53 PM,46.4,41.0,81,29.70,10.0,SSE,11.5,-,N/A,,Overcast,160,2012-10-20 19:53:00
3:15 PM,46.4,41.0,81,29.71,10.0,South,10.4,-,N/A,,Overcast,170,2012-10-20 20:15:00
3:35 PM,46.4,41.0,81,29.71,10.0,SSE,11.5,-,N/A,,Overcast,160,2012-10-20 20:35:00
4:15 PM,46.4,41.0,81,29.70,10.0,SSE,11.5,-,N/A,,Overcast,160,2012-10-20 21:15:00
4:35 PM,46.4,41.0,81,29.70,10.0,South,10.4,-,N/A,,Overcast,170,2012-10-20 21:35:00
4:53 PM,46.4,41.0,81,29.70,10.0,South,9.2,-,N/A,,Overcast,170,2012-10-20 21:53:00
5:15 PM,46.4,39.2,76,29.71,10.0,SSE,10.4,-,N/A,,Overcast,160,2012-10-20 22:15:00
5:35 PM,46.4,39.2,76,29.71,10.0,South,9.2,-,N/A,,Overcast,180,2012-10-20 22:35:00
5:53 PM,46.4,41.0,81,29.71,10.0,SSE,8.1,-,N/A,,Overcast,160,2012-10-20 22:53:00
6:15 PM,46.4,39.2,76,29.71,10.0,SSE,11.5,-,N/A,,Overcast,160,2012-10-20 23:15:00
6:35 PM,44.6,39.2,81,29.71,10.0,South,10.4,-,N/A,,Mostly Cloudy,170,2012-10-20 23:35:00
6:53 PM,44.6,39.2,81,29.71,10.0,SSE,9.2,-,N/A,,Scattered Clouds,150,2012-10-20 23:53:00
7:15 PM,44.6,39.2,81,29.71,10.0,SSE,11.5,-,N/A,,Scattered Clouds,150,2012-10-21 00:15:00
7:35 PM,42.8,39.2,87,29.71,10.0,SSE,6.9,-,N/A,,Clear,150,2012-10-21 00:35:00
8:15 PM,42.8,39.2,87,29.71,10.0,SE,6.9,-,N/A,,Clear,140,2012-10-21 01:15:00
8:35 PM,42.8,39.2,87,29.72,10.0,SE,5.8,-,N/A,,Clear,140,2012-10-21 01:35:00
8:52 PM,42.8,39.2,87,29.72,10.0,SSE,8.1,-,N/A,,Clear,150,2012-10-21 01:52:00
9:15 PM,42.8,39.2,87,29.73,10.0,SSE,6.9,-,N/A,,Clear,150,2012-10-21 02:15:00
9:35 PM,42.8,39.2,87,29.73,10.0,SSE,6.9,-,N/A,,Clear,150,2012-10-21 02:35:00
9:53 PM,42.8,39.2,87,29.72,10.0,SSE,8.1,-,N/A,,Clear,150,2012-10-21 02:53:00
10:15 PM,42.8,39.2,87,29.72,10.0,SSE,11.5,-,N/A,,Clear,150,2012-10-21 03:15:00
10:35 PM,42.8,39.2,87,29.72,10.0,SSE,8.1,-,N/A,,Clear,150,2012-10-21 03:35:00
10:53 PM,42.8,39.2,87,29.72,10.0,SSE,8.1,-,N/A,,Clear,150,2012-10-21 03:53:00
11:15 PM,42.8,39.2,87,29.73,10.0,SSE,4.6,-,N/A,,Clear,150,2012-10-21 04:15:00
11:35 PM,42.8,39.2,87,29.74,10.0,SE,3.5,-,N/A,,Scattered Clouds,140,2012-10-21 04:35:00
11:53 PM,42.8,39.2,87,29.76,10.0,Calm,Calm,-,N/A,,Mostly Cloudy,0,2012-10-21 04:53:00